Terminal Aerodrome Forecast
Issued by NWS

Home | Current Version | Previous Version | Text Only | Print | Product List | Glossary Off
Versions: 1 2 3 4 5 6 7 8 9 10 11 12 13 14 15 16 17 18 19 20 21 22 23 24 25 26 27 28 29 30 31 32 33 34 35 36

000
FTUS43 KLOT 301137
TAFMDW
TAF
KMDW 301137Z 3012/3112 28008KT P6SM SKC
     FM301800 27011G17KT P6SM BKN080
     FM310000 19006KT P6SM BKN070
     FM310500 23016KT P6SM SCT100 WS015/25050KT
     FM310900 28012G18KT P6SM SCT250=

USA.gov is the U.S. government's official web portal to all federal, state and local government web resources and services.